Lid_Strength_Index
-1 -1 -0 -1 -1 -1 -1 0 2 4 3 1 1 -2 -1 -2 -2 -2 -2 0 0 1 1 1 0 0 -0 -1 -1 -1 -1 -1 1 3 3 3 1 -1
-0 -1 -1 -1 -1 -1 -0 -0 0 1 3 1 0 -1 -2 -1 -2 -2 -2 -1 -1 1 0 1 0 0 0 0 -0 -1 -0 -0 0 2 4 4 2 -0
-1 -0 -0 -1 -0 -0 -0 -0 0 0 2 1 -0 -1 -1 -1 -1 -2 -2 -2 -2 0 1 1 0 1 1 1 1 0 0 0 1 2 4 4 3 2
-0 -0 -0 -0 -1 -1 -0 -1 -0 -0 1 2 0 0 -1 -1 -2 -1 -1 -1 -2 -0 1 1 1 2 3 3 3 2 2 1 1 2 4 4 4 3
-0 -0 -0 -1 -0 -0 -0 0 -0 -0 -0 1 1 -0 -0 -1 -1 -1 -1 -2 -1 -1 0 1 1 2 2 3 4 4 3 4 3 4 4 5 5 4
-1 -1 -1 -0 -1 -0 -0 -0 -0 0 0 1 1 1 0 -1 -0 1 1 -0 -0 -1 -1 0 0 1 2 3 3 3 4 5 5 6 6 6 6 5
-1 -1 -1 -0 1 0 -0 -1 -0 1 1 1 1 1 1 1 1 0 1 0 -0 -1 -0 -1 -1 -1 -1 -0 0 0 3 4 5 6 7 7 8 7
-0 -0 -1 -0 0 2 3 3 1 0 1 1 1 2 1 1 0 1 1 2 2 -1 -0 0 -1 -0 -1 -1 1 2 3 4 4 5 6 8 8 8
-0 -0 -0 -0 -0 -1 2 4 4 4 3 0 1 1 1 0 0 1 1 1 2 0 0 1 -0 0 -1 -1 2 2 3 4 5 6 7 7 8 9
-1 -1 -0 -0 2 0 -0 -0 -0 -1 -1 -0 -0 -0 -1 -1 -1 -0 0 0 0 -0 -1 2 -0 0 -1 -1 2 3 4 4 5 6 7 8 9 9
1 2 0 1 6 7 -0 0 0 -0 1 4 4 5 5 4 2 -0 1 2 2 1 -0 1 1 1 -0 -0 -1 2 4 6 7 8 8 9 10 10
1 1 4 3 8 8 1 0 1 1 -0 -0 -0 0 2 0 5 -0 0 2 2 2 -0 1 1 1 2 -0 -1 -1 -1 6 8 9 9 10 11 2
0 -0 -0 7 9 9 8 0 1 2 1 -0 0 -0 -0 -0 -1 -2 -2 0 2 2 0 0 1 1 1 2 0 0 -0 -0 -1 1 11 12 12 7
2 2 2 8 9 9 6 7 7 5 1 1 1 1 1 0 -0 -1 -2 -2 -1 -0 -2 -1 1 1 2 2 2 0 -0 -0 -1 -0 -1 7 12 12
3 5 7 8 9 6 7 7 7 -0 0 1 1 1 0 -0 -1 -1 -2 -2 -2 -2 -1 -2 -0 -0 0 2 2 2 2 0 -0 -0 -0 -0 -0 -1
2 1 2 3 4 3 3 2 1 0 0 1 1 1 0 1 1 1 1 0 1 0 -2 -2 -2 -1 1 1 1 2 1 2 0 0 -0 -0 -0 -1
6 1 1 1 1 0 -0 -0 -0 -0 0 0 0 2 2 2 2 2 2 2 2 2 1 -0 -3 -2 -1 0 2 1 1 1 0 0 0 1 0 -0
4 3 3 2 2 2 1 0 0 0 -0 -0 0 0 1 1 1 1 1 1 2 1 1 0 0 1 0 -1 0 1 1 1 0 -0 0 1 1 -0
5 6 5 5 4 4 3 3 2 2 0 1 1 1 1 1 1 1 1 1 1 1 1 0 1 1 2 3 0 3 1 0 0 1 0 1 1 1
6 6 6 5 5 5 5 4 4 4 3 3 3 2 2 2 2 2 2 1 1 1 1 1 1 1 2 3 2 0 3 0 1 1 1 0 0 3
7 7 6 6 6 5 5 5 5 5 6 5 4 4 3 3 3 2 2 5 4 3 2 2 0 2 -0 -0 2 1 -0 3 1 0 0 1 2 1
7 7 7 7 7 7 6 6 6 5 5 5 5 6 6 5 6 5 5 5 4 4 4 3 1 1 1 2 2 2 1 -0 0 2 3 2 1 3
8 8 8 8 8 7 7 7 7 7 7 6 6 6 6 7 6 7 7 7 7 6 5 5 4 3 2 2 2 2 1 1 1 0 0 2 4 5